,,,PA_Meas_PMT16A,,PR_Meas_QMR101_102,,RH_Meas_QMH101,,SR_Meas_QMS101,,TA_Meas_QMH101,,GenWind,,GenWind,
date,time,status,PA,status,PR,status,RH,status,SR,status,TA,status,DirAvg,status,SpdAvg,
2008-05-28, 00:00:04,VALID,1009.64,VALID,0,VALID,95.3753,VALID,0,VALID,22.4294,VALID,360,VALID,0.102344,
2008-05-28, 00:01:04,VALID,1009.65,VALID,0,VALID,95.3905,VALID,0,VALID,22.4277,VALID,360,VALID,0,
2008-05-28, 00:02:04,VALID,1009.6,VALID,0,VALID,95.4058,VALID,0,VALID,22.4294,VALID,360,VALID,0,
2008-05-28, 00:03:04,VALID,1009.59,VALID,0,VALID,95.4516,VALID,0,VALID,22.4489,VALID,360,VALID,0,
2008-05-28, 00:04:04,VALID,1009.58,VALID,0,VALID,95.4821,VALID,0,VALID,22.4294,VALID,360,VALID,0,
2008-05-28, 00:05:04,VALID,1009.53,VALID,0,VALID,95.5049,VALID,0,VALID,22.4294,VALID,360,VALID,0,
2008-05-28, 00:06:04,VALID,1009.52,VALID,0,VALID,95.5202,VALID,0,VALID,22.4489,VALID,360,VALID,0,
2008-05-28, 00:07:04,VALID,1009.52,VALID,0,VALID,95.5202,VALID,0,VALID,22.4277,VALID,360,VALID,0,
2008-05-28, 00:08:04,VALID,1009.51,VALID,0,VALID,95.5049,VALID,0,VALID,22.4294,VALID,360,VALID,0,
2008-05-28, 00:09:04,VALID,1009.51,VALID,0,VALID,95.4897,VALID,0,VALID,22.4294,VALID,360,VALID,0,
2008-05-28, 00:10:04,VALID,1009.5,VALID,0,VALID,95.4592,VALID,0,VALID,22.4099,VALID,360,VALID,0.0816406,
2008-05-28, 00:11:04,VALID,1009.47,VALID,0,VALID,95.4744,VALID,0,VALID,22.4082,VALID,360,VALID,0,
2008-05-28, 00:12:04,VALID,1009.47,VALID,0,VALID,95.5049,VALID,0,VALID,22.4082,VALID,360,VALID,0,
2008-05-28, 00:13:04,VALID,1009.44,VALID,0,VALID,95.5278,VALID,0,VALID,22.4294,VALID,360,VALID,0,
2008-05-28, 00:14:04,VALID,1009.46,VALID,0,VALID,95.5202,VALID,0,VALID,22.4489,VALID,360,VALID,0,
2008-05-28, 00:15:04,VALID,1009.5,VALID,0,VALID,95.5202,VALID,0,VALID,22.4082,VALID,360,VALID,0,
2008-05-28, 00:16:04,VALID,1009.49,VALID,0,VALID,95.5049,VALID,0,VALID,22.4294,VALID,360,VALID,0,
2008-05-28, 00:17:04,VALID,1009.47,VALID,0,VALID,95.5278,VALID,0,VALID,22.4489,VALID,360,VALID,0,
2008-05-28, 00:18:04,VALID,1009.48,VALID,0,VALID,95.5431,VALID,0,VALID,22.4082,VALID,360,VALID,0.139844,
2008-05-28, 00:19:04,VALID,1009.45,VALID,0,VALID,95.5354,VALID,0,VALID,22.4489,VALID,360,VALID,0.308594,
2008-05-28, 00:20:04,VALID,1009.45,VALID,0,VALID,95.5507,VALID,0,VALID,22.4082,VALID,360,VALID,0.224219,
2008-05-28, 00:21:04,VALID,1009.42,VALID,0,VALID,95.5354,VALID,0,VALID,22.4082,VALID,360,VALID,0.194922,
2008-05-28, 00:22:04,VALID,1009.41,VALID,0,VALID,95.5431,VALID,0,VALID,22.4294,VALID,360,VALID,0.206641,
2008-05-28, 00:23:04,VALID,1009.38,VALID,0,VALID,95.5354,VALID,0,VALID,22.4099,VALID,360,VALID,0.110937,
2008-05-28, 00:24:04,VALID,1009.36,VALID,0,VALID,95.5278,VALID,0,VALID,22.3887,VALID,360,VALID,0,
2008-05-28, 00:25:04,VALID,1009.32,VALID,0,VALID,95.5431,VALID,0,VALID,22.4099,VALID,360,VALID,0,
2008-05-28, 00:26:04,VALID,1009.32,VALID,0,VALID,95.5049,VALID,0,VALID,22.3904,VALID,360,VALID,0,
2008-05-28, 00:27:04,VALID,1009.29,VALID,0,VALID,95.5354,VALID,0,VALID,22.3904,VALID,360,VALID,0,
2008-05-28, 00:28:04,VALID,1009.28,VALID,0,VALID,95.5507,VALID,0,VALID,22.3693,VALID,360,VALID,0,
2008-05-28, 00:29:04,VALID,1009.29,VALID,0,VALID,95.5354,VALID,0,VALID,22.371,VALID,360,VALID,0,
2008-05-28, 00:30:04,VALID,1009.25,VALID,0,VALID,95.5507,VALID,0,VALID,22.4099,VALID,360,VALID,0,
2008-05-28, 00:31:04,VALID,1009.25,VALID,0,VALID,95.5659,VALID,0,VALID,22.3904,VALID,360,VALID,0,
2008-05-28, 00:32:04,VALID,1009.25,VALID,0,VALID,95.6041,VALID,0,VALID,22.4099,VALID,360,VALID,0,
2008-05-28, 00:33:04,VALID,1009.22,VALID,0,VALID,95.5964,VALID,0,VALID,22.4082,VALID,360,VALID,0,
2008-05-28, 00:34:04,VALID,1009.19,VALID,0,VALID,95.6193,VALID,0,VALID,22.3887,VALID,360,VALID,0,
2008-05-28, 00:35:04,VALID,1009.15,VALID,0,VALID,95.5964,VALID,0,VALID,22.4099,VALID,360,VALID,0,
2008-05-28, 00:36:04,VALID,1009.14,VALID,0,VALID,95.6117,VALID,0,VALID,22.4099,VALID,360,VALID,0,
2008-05-28, 00:37:04,VALID,1009.08,VALID,0,VALID,95.6346,VALID,0,VALID,22.4099,VALID,360,VALID,0,
2008-05-28, 00:38:04,VALID,1009.09,VALID,0,VALID,95.6422,VALID,0,VALID,22.4099,VALID,312,VALID,0,
2008-05-28, 00:39:04,VALID,1009.06,VALID,0,VALID,95.6727,VALID,0,VALID,22.4277,VALID,312,VALID,0,
2008-05-28, 00:40:04,VALID,1009.06,VALID,0,VALID,95.688,VALID,0,VALID,22.4472,VALID,312,VALID,0,
2008-05-28, 00:41:04,VALID,1009.04,VALID,0,VALID,95.6956,VALID,0,VALID,22.4667,VALID,255,VALID,0.383203,
2008-05-28, 00:42:04,VALID,1009.04,VALID,0,VALID,95.6803,VALID,0,VALID,22.4667,VALID,254,VALID,0.353125,
2008-05-28, 00:43:04,VALID,1009.01,VALID,0,VALID,95.6498,VALID,0,VALID,22.4878,VALID,254,VALID,0.258984,
2008-05-28, 00:44:04,VALID,1009.01,VALID,0,VALID,95.6422,VALID,0,VALID,22.4878,VALID,255,VALID,0.198828,
2008-05-28, 00:45:04,VALID,1008.96,VALID,0,VALID,95.6269,VALID,0,VALID,22.4684,VALID,255,VALID,0.160938,
2008-05-28, 00:46:04,VALID,1008.97,VALID,0,VALID,95.5888,VALID,0,VALID,22.4277,VALID,254,VALID,0.186719,
2008-05-28, 00:47:04,VALID,1008.94,VALID,0,VALID,95.5431,VALID,0,VALID,22.4099,VALID,254,VALID,0.223438,
2008-05-28, 00:48:04,VALID,1008.93,VALID,0,VALID,95.5278,VALID,0,VALID,22.3887,VALID,254,VALID,0.21875,
2008-05-28, 00:49:04,VALID,1008.92,VALID,0,VALID,95.5126,VALID,0,VALID,22.3693,VALID,254,VALID,0.212891,
2008-05-28, 00:50:04,VALID,1008.89,VALID,0,VALID,95.5202,VALID,0,VALID,22.3887,VALID,254,VALID,0.247656,
2008-05-28, 00:51:04,VALID,1008.9,VALID,0,VALID,95.4973,VALID,0,VALID,22.3887,VALID,254,VALID,0.139062,
2008-05-28, 00:52:04,VALID,1008.86,VALID,0,VALID,95.5126,VALID,0,VALID,22.3904,VALID,254,VALID,0.128906,
2008-05-28, 00:53:04,VALID,1008.85,VALID,0,VALID,95.5431,VALID,0,VALID,22.4099,VALID,255,VALID,0.119922,
2008-05-28, 00:54:04,VALID,1008.81,VALID,0,VALID,95.5202,VALID,0,VALID,22.3904,VALID,254,VALID,0.0734375,
2008-05-28, 00:55:04,VALID,1008.78,VALID,0,VALID,95.5202,VALID,0,VALID,22.3904,VALID,254,VALID,0.196484,
2008-05-28, 00:56:04,VALID,1008.76,VALID,0,VALID,95.5278,VALID,0,VALID,22.3498,VALID,255,VALID,0.304688,
2008-05-28, 00:57:04,VALID,1008.73,VALID,0,VALID,95.4897,VALID,0,VALID,22.371,VALID,255,VALID,0.40625,
2008-05-28, 00:58:04,VALID,1008.73,VALID,0,VALID,95.4821,VALID,0.105969,VALID,22.3286,VALID,81,VALID,0.592188,
2008-05-28, 00:59:04,VALID,1008.69,VALID,0,VALID,95.4592,VALID,0,VALID,22.3515,VALID,77,VALID,0.528906,
2008-05-28, 01:00:04,VALID,1008.68,VALID,0,VALID,95.5278,VALID,0,VALID,22.3693,VALID,73,VALID,0.586719,
2008-05-28, 01:01:04,VALID,1008.66,VALID,0,VALID,95.5354,VALID,0,VALID,22.3887,VALID,66,VALID,0.525391,
2008-05-28, 01:02:04,VALID,1008.64,VALID,0,VALID,95.5507,VALID,0.105969,VALID,22.4082,VALID,78,VALID,0.554297,
2008-05-28, 01:03:04,VALID,1008.62,VALID,0,VALID,95.5431,VALID,0,VALID,22.4294,VALID,80,VALID,0.674219,
2008-05-28, 01:04:04,VALID,1008.62,VALID,0,VALID,95.5278,VALID,0,VALID,22.4277,VALID,79,VALID,0.397656,
2008-05-28, 01:05:04,VALID,1008.62,VALID,0,VALID,95.4897,VALID,0,VALID,22.4065,VALID,79,VALID,0.397266,
2008-05-28, 01:06:04,VALID,1008.61,VALID,0,VALID,95.4592,VALID,0,VALID,22.4277,VALID,79,VALID,0.490625,
2008-05-28, 01:07:04,VALID,1008.65,VALID,0,VALID,95.4363,VALID,0,VALID,22.4277,VALID,79,VALID,0.563281,
2008-05-28, 01:08:04,VALID,1008.66,VALID,0,VALID,95.3982,VALID,0,VALID,22.4294,VALID,79,VALID,0.614844,
2008-05-28, 01:09:04,VALID,1008.68,VALID,0,VALID,95.36,VALID,0,VALID,22.4082,VALID,79,VALID,0.687891,
2008-05-28, 01:10:04,VALID,1008.68,VALID,0,VALID,95.299,VALID,0,VALID,22.3887,VALID,79,VALID,0.546875,
2008-05-28, 01:11:04,VALID,1008.68,VALID,0,VALID,95.2685,VALID,0,VALID,22.4099,VALID,79,VALID,0.534766,
2008-05-28, 01:12:04,VALID,1008.67,VALID,0,VALID,95.2609,VALID,0,VALID,22.4099,VALID,79,VALID,0.397656,
2008-05-28, 01:13:04,VALID,1008.65,VALID,0,VALID,95.2533,VALID,0,VALID,22.3887,VALID,79,VALID,0.291406,
2008-05-28, 01:14:04,VALID,1008.69,VALID,0,VALID,95.238,VALID,0,VALID,22.3887,VALID,79,VALID,0.34375,
2008-05-28, 01:15:04,VALID,1008.7,VALID,0,VALID,95.238,VALID,0,VALID,22.3887,VALID,105,VALID,0.53125,
2008-05-28, 01:16:04,VALID,1008.68,VALID,0,VALID,95.2457,VALID,0.105969,VALID,22.4277,VALID,112,VALID,0.571094,
2008-05-28, 01:17:04,VALID,1008.71,VALID,0,VALID,95.3219,VALID,0,VALID,22.4472,VALID,131,VALID,0.886328,
2008-05-28, 01:18:04,VALID,1008.67,VALID,0,VALID,95.36,VALID,0,VALID,22.4861,VALID,130,VALID,0.953125,
2008-05-28, 01:19:04,VALID,1008.65,VALID,0,VALID,95.4058,VALID,0,VALID,22.5268,VALID,127,VALID,0.975781,
2008-05-28, 01:20:04,VALID,1008.66,VALID,0,VALID,95.4363,VALID,0,VALID,22.564,VALID,123,VALID,1.11172,
2008-05-28, 01:21:04,VALID,1008.63,VALID,0,VALID,95.4363,VALID,0,VALID,22.603,VALID,133,VALID,0.938672,
2008-05-28, 01:22:04,VALID,1008.65,VALID,0,VALID,95.4134,VALID,0,VALID,22.603,VALID,136,VALID,0.701953,
2008-05-28, 01:23:04,VALID,1008.63,VALID,0,VALID,95.3829,VALID,0,VALID,22.603,VALID,98,VALID,0.420703,
2008-05-28, 01:24:04,VALID,1008.63,VALID,0,VALID,95.3448,VALID,0,VALID,22.603,VALID,98,VALID,0.467187,
2008-05-28, 01:25:04,VALID,1008.62,VALID,0,VALID,95.299,VALID,0,VALID,22.6225,VALID,98,VALID,0.601172,
2008-05-28, 01:26:04,VALID,1008.64,VALID,0,VALID,95.2762,VALID,0,VALID,22.642,VALID,91,VALID,0.869531,
2008-05-28, 01:27:04,VALID,1008.64,VALID,0,VALID,95.2304,VALID,0,VALID,22.6013,VALID,91,VALID,0.467187,
2008-05-28, 01:28:04,VALID,1008.62,VALID,0,VALID,95.1542,VALID,0,VALID,22.6225,VALID,89,VALID,0.414453,
2008-05-28, 01:29:04,VALID,1008.58,VALID,0,VALID,95.1084,VALID,0,VALID,22.6225,VALID,86,VALID,0.453906,
2008-05-28, 01:30:04,VALID,1008.58,VALID,0,VALID,95.0321,VALID,0,VALID,22.603,VALID,86,VALID,0.485156,
2008-05-28, 01:31:04,VALID,1008.56,VALID,0,VALID,94.9864,VALID,0,VALID,22.603,VALID,89,VALID,0.623047,
2008-05-28, 01:32:04,VALID,1008.59,VALID,0,VALID,94.9483,VALID,0,VALID,22.564,VALID,92,VALID,0.523828,
2008-05-28, 01:33:04,VALID,1008.55,VALID,0,VALID,94.933,VALID,0,VALID,22.5852,VALID,97,VALID,0.773438,
2008-05-28, 01:34:04,VALID,1008.51,VALID,0,VALID,94.933,VALID,0,VALID,22.564,VALID,92,VALID,0.771875,
2008-05-28, 01:35:04,VALID,1008.5,VALID,0,VALID,94.9406,VALID,0,VALID,22.5852,VALID,74,VALID,0.910937,
2008-05-28, 01:36:04,VALID,1008.5,VALID,0,VALID,94.9025,VALID,0,VALID,22.5446,VALID,91,VALID,0.741016,
2008-05-28, 01:37:04,VALID,1008.49,VALID,0,VALID,94.9178,VALID,0,VALID,22.5251,VALID,99,VALID,1.05977,
2008-05-28, 01:38:04,VALID,1008.47,VALID,0,VALID,94.9025,VALID,0,VALID,22.5251,VALID,96,VALID,0.641406,
2008-05-28, 01:39:04,VALID,1008.47,VALID,0,VALID,94.8568,VALID,0,VALID,22.5268,VALID,99,VALID,0.525391,
2008-05-28, 01:40:04,VALID,1008.41,VALID,0,VALID,94.8796,VALID,0,VALID,22.5251,VALID,86,VALID,0.828125,
2008-05-28, 01:41:04,VALID,1008.38,VALID,0,VALID,94.9178,VALID,0,VALID,22.5251,VALID,108,VALID,0.5625,
2008-05-28, 01:42:04,VALID,1008.38,VALID,0,VALID,94.9178,VALID,0,VALID,22.5251,VALID,96,VALID,0.914844,
2008-05-28, 01:43:04,VALID,1008.36,VALID,0,VALID,94.9254,VALID,0,VALID,22.5251,VALID,92,VALID,0.606641,
2008-05-28, 01:44:04,VALID,1008.35,VALID,0,VALID,94.9254,VALID,0.105969,VALID,22.5251,VALID,107,VALID,0.653906,
2008-05-28, 01:45:04,VALID,1008.35,VALID,0,VALID,94.9788,VALID,0,VALID,22.5251,VALID,106,VALID,0.621484,
2008-05-28, 01:46:04,VALID,1008.36,VALID,0,VALID,94.994,VALID,0,VALID,22.5251,VALID,99,VALID,0.717578,
2008-05-28, 01:47:04,VALID,1008.34,VALID,0,VALID,94.994,VALID,0,VALID,22.5446,VALID,94,VALID,0.720312,
2008-05-28, 01:48:04,VALID,1008.35,VALID,0,VALID,94.9711,VALID,0,VALID,22.5446,VALID,81,VALID,0.510156,
2008-05-28, 01:49:04,VALID,1008.36,VALID,0,VALID,94.9483,VALID,0,VALID,22.5463,VALID,73,VALID,0.610156,
2008-05-28, 01:50:04,VALID,1008.35,VALID,0,VALID,94.933,VALID,0,VALID,22.5463,VALID,62,VALID,0.53125,
2008-05-28, 01:51:04,VALID,1008.33,VALID,0,VALID,94.872,VALID,0,VALID,22.4861,VALID,54,VALID,0.34375,
2008-05-28, 01:52:04,VALID,1008.34,VALID,0,VALID,94.872,VALID,0,VALID,22.4667,VALID,66,VALID,0.232422,
2008-05-28, 01:53:04,VALID,1008.31,VALID,0,VALID,94.8949,VALID,0,VALID,22.4878,VALID,66,VALID,0.301953,
2008-05-28, 01:54:04,VALID,1008.34,VALID,0,VALID,94.8873,VALID,0,VALID,22.4667,VALID,66,VALID,0.322266,
2008-05-28, 01:55:04,VALID,1008.34,VALID,0,VALID,94.9101,VALID,0,VALID,22.4277,VALID,66,VALID,0.426562,
2008-05-28, 01:56:04,VALID,1008.32,VALID,0,VALID,94.9559,VALID,0,VALID,22.4277,VALID,65,VALID,0.296484,
2008-05-28, 01:57:04,VALID,1008.3,VALID,0,VALID,94.9864,VALID,0,VALID,22.4082,VALID,65,VALID,0.508203,
2008-05-28, 01:58:04,VALID,1008.29,VALID,0,VALID,95.0626,VALID,0,VALID,22.4082,VALID,65,VALID,0.448438,
2008-05-28, 01:59:04,VALID,1008.29,VALID,0,VALID,95.1008,VALID,0,VALID,22.3887,VALID,65,VALID,0.190234,
2008-05-28, 02:00:04,VALID,1008.31,VALID,0,VALID,95.1084,VALID,0,VALID,22.4099,VALID,61,VALID,0.445703,
2008-05-28, 02:01:04,VALID,1008.34,VALID,0,VALID,95.1313,VALID,0,VALID,22.3693,VALID,61,VALID,0.459375,
2008-05-28, 02:02:04,VALID,1008.34,VALID,0,VALID,95.177,VALID,0,VALID,22.3693,VALID,65,VALID,0.615234,
2008-05-28, 02:03:04,VALID,1008.33,VALID,0,VALID,95.2152,VALID,0,VALID,22.3887,VALID,70,VALID,0.402734,
2008-05-28, 02:04:04,VALID,1008.31,VALID,0,VALID,95.1999,VALID,0,VALID,22.3693,VALID,67,VALID,0.457422,
2008-05-28, 02:05:04,VALID,1008.34,VALID,0,VALID,95.238,VALID,0,VALID,22.371,VALID,66,VALID,0.367188,
2008-05-28, 02:06:04,VALID,1008.3,VALID,0,VALID,95.2533,VALID,0,VALID,22.3498,VALID,39,VALID,0.477344,
2008-05-28, 02:07:04,VALID,1008.3,VALID,0,VALID,95.299,VALID,0,VALID,22.3498,VALID,29,VALID,0.472656,
2008-05-28, 02:08:04,VALID,1008.31,VALID,0,VALID,95.238,VALID,0,VALID,22.3303,VALID,26,VALID,0.460547,
2008-05-28, 02:09:05,VALID,1008.28,VALID,0,VALID,95.2457,VALID,0,VALID,22.3108,VALID,26,VALID,0.575781,
2008-05-28, 02:10:05,VALID,1008.26,VALID,0,VALID,95.2914,VALID,0,VALID,22.3108,VALID,26,VALID,0.435937,
2008-05-28, 02:11:05,VALID,1008.25,VALID,0,VALID,95.3067,VALID,0,VALID,22.2914,VALID,12,VALID,0.565234,
2008-05-28, 02:12:05,VALID,1008.26,VALID,0,VALID,95.3143,VALID,0,VALID,22.293,VALID,17,VALID,0.409766,
2008-05-28, 02:13:05,VALID,1008.25,VALID,0,VALID,95.3295,VALID,0,VALID,22.2524,VALID,15,VALID,0.413281,
2008-05-28, 02:14:05,VALID,1008.26,VALID,0,VALID,95.3753,VALID,0,VALID,22.2329,VALID,15,VALID,0.264062,
2008-05-28, 02:15:05,VALID,1008.27,VALID,0,VALID,95.3982,VALID,0,VALID,22.2736,VALID,15,VALID,0.247266,
2008-05-28, 02:16:05,VALID,1008.27,VALID,0,VALID,95.4134,VALID,0,VALID,22.2736,VALID,15,VALID,0.259375,
2008-05-28, 02:17:05,VALID,1008.28,VALID,0,VALID,95.4134,VALID,0,VALID,22.2329,VALID,15,VALID,0.206641,
2008-05-28, 02:18:05,VALID,1008.27,VALID,0,VALID,95.4058,VALID,0,VALID,22.2346,VALID,15,VALID,0.28125,
2008-05-28, 02:19:05,VALID,1008.25,VALID,0,VALID,95.4058,VALID,0,VALID,22.194,VALID,15,VALID,0.239453,
2008-05-28, 02:20:05,VALID,1008.26,VALID,0,VALID,95.4363,VALID,0,VALID,22.194,VALID,16,VALID,0.364062,
2008-05-28, 02:21:05,VALID,1008.26,VALID,0,VALID,95.4897,VALID,0,VALID,22.1957,VALID,46,VALID,0.246875,
2008-05-28, 02:22:05,VALID,1008.27,VALID,0,VALID,95.4973,VALID,0,VALID,22.194,VALID,43,VALID,0.436328,
2008-05-28, 02:23:05,VALID,1008.27,VALID,0,VALID,95.5583,VALID,0,VALID,22.1745,VALID,36,VALID,0.382031,
2008-05-28, 02:24:05,VALID,1008.24,VALID,0,VALID,95.5659,VALID,0,VALID,22.1745,VALID,28,VALID,0.453516,
2008-05-28, 02:25:05,VALID,1008.21,VALID,0,VALID,95.5964,VALID,0,VALID,22.1745,VALID,360,VALID,0.501172,
2008-05-28, 02:26:05,VALID,1008.21,VALID,0,VALID,95.688,VALID,0,VALID,22.1745,VALID,352,VALID,0.522656,
2008-05-28, 02:27:05,VALID,1008.19,VALID,0,VALID,95.7185,VALID,0,VALID,22.2346,VALID,331,VALID,0.708594,
2008-05-28, 02:28:05,VALID,1008.15,VALID,0,VALID,95.7566,VALID,0,VALID,22.2134,VALID,329,VALID,0.511719,
2008-05-28, 02:29:05,VALID,1008.16,VALID,0,VALID,95.749,VALID,0,VALID,22.2134,VALID,329,VALID,0.239063,
2008-05-28, 02:30:05,VALID,1008.13,VALID,0,VALID,95.7642,VALID,0,VALID,22.2134,VALID,329,VALID,0.352344,
2008-05-28, 02:31:05,VALID,1008.15,VALID,0,VALID,95.7718,VALID,0,VALID,22.2134,VALID,329,VALID,0.383203,
2008-05-28, 02:32:05,VALID,1008.1,VALID,0,VALID,95.7642,VALID,0,VALID,22.2134,VALID,329,VALID,0.369922,
2008-05-28, 02:33:05,VALID,1008.08,VALID,0,VALID,95.7947,VALID,0,VALID,22.1957,VALID,329,VALID,0.460547,
2008-05-28, 02:34:05,VALID,1008.04,VALID,0,VALID,95.7871,VALID,0,VALID,22.1745,VALID,329,VALID,0.438672,
2008-05-28, 02:35:05,VALID,1008.03,VALID,0,VALID,95.81,VALID,0,VALID,22.1762,VALID,329,VALID,0.514844,
2008-05-28, 02:36:05,VALID,1008,VALID,0,VALID,95.8176,VALID,0,VALID,22.1957,VALID,334,VALID,0.303516,
2008-05-28, 02:37:05,VALID,1008,VALID,0,VALID,95.8633,VALID,0,VALID,22.1762,VALID,334,VALID,0.336719,
2008-05-28, 02:38:05,VALID,1008,VALID,0,VALID,95.8786,VALID,0,VALID,22.1957,VALID,345,VALID,0.239844,
2008-05-28, 02:39:05,VALID,1007.98,VALID,0,VALID,95.9167,VALID,0,VALID,22.1745,VALID,345,VALID,0.0078125,
2008-05-28, 02:40:05,VALID,1007.99,VALID,0,VALID,95.9015,VALID,0,VALID,22.194,VALID,345,VALID,0.00234375,
2008-05-28, 02:41:05,VALID,1007.98,VALID,0,VALID,95.9167,VALID,0,VALID,22.1745,VALID,345,VALID,0.192578,
2008-05-28, 02:42:05,VALID,1007.95,VALID,0,VALID,95.9244,VALID,0,VALID,22.1762,VALID,345,VALID,0.323047,
2008-05-28, 02:43:05,VALID,1007.95,VALID,0,VALID,95.9091,VALID,0,VALID,22.1762,VALID,345,VALID,0.266797,
2008-05-28, 02:44:05,VALID,1007.93,VALID,0,VALID,95.9167,VALID,0,VALID,22.155,VALID,345,VALID,0.253906,
2008-05-28, 02:45:05,VALID,1007.93,VALID,0,VALID,95.9472,VALID,0,VALID,22.155,VALID,345,VALID,0.292969,
2008-05-28, 02:46:05,VALID,1007.96,VALID,0,VALID,95.9701,VALID,0,VALID,22.1567,VALID,346,VALID,0.312109,
2008-05-28, 02:47:05,VALID,1007.96,VALID,0,VALID,95.9777,VALID,0,VALID,22.155,VALID,29,VALID,0.344922,
2008-05-28, 02:48:05,VALID,1007.96,VALID,0,VALID,96.0082,VALID,0,VALID,22.194,VALID,29,VALID,0.390625,
2008-05-28, 02:49:05,VALID,1007.97,VALID,0,VALID,96.0235,VALID,0,VALID,22.2134,VALID,99,VALID,0.497266,
2008-05-28, 02:50:05,VALID,1007.95,VALID,0,VALID,96.0616,VALID,0,VALID,22.2524,VALID,101,VALID,0.571484,
2008-05-28, 02:51:05,VALID,1007.93,VALID,0,VALID,96.0921,VALID,0,VALID,22.2719,VALID,102,VALID,0.183984,
2008-05-28, 02:52:05,VALID,1007.91,VALID,0,VALID,96.0921,VALID,0,VALID,22.2914,VALID,102,VALID,0.371484,
2008-05-28, 02:53:05,VALID,1007.86,VALID,0,VALID,96.0845,VALID,0,VALID,22.3108,VALID,102,VALID,0.301953,
2008-05-28, 02:54:05,VALID,1007.86,VALID,0,VALID,96.0845,VALID,0,VALID,22.3108,VALID,106,VALID,0.503906,
2008-05-28, 02:55:05,VALID,1007.87,VALID,0,VALID,96.1074,VALID,0,VALID,22.3108,VALID,107,VALID,0.580469,
2008-05-28, 02:56:05,VALID,1007.85,VALID,0,VALID,96.0921,VALID,0,VALID,22.3108,VALID,107,VALID,0.397266,
2008-05-28, 02:57:05,VALID,1007.89,VALID,0,VALID,96.0997,VALID,0,VALID,22.3108,VALID,107,VALID,0.328516,
2008-05-28, 02:58:05,VALID,1007.87,VALID,0,VALID,96.0769,VALID,0,VALID,22.2914,VALID,87,VALID,0.621484,
2008-05-28, 02:59:05,VALID,1007.88,VALID,0,VALID,96.1074,VALID,0,VALID,22.2914,VALID,85,VALID,0.618359,
2008-05-28, 03:00:05,VALID,1007.86,VALID,0,VALID,96.0997,VALID,0,VALID,22.3125,VALID,84,VALID,0.491406,
2008-05-28, 03:01:05,VALID,1007.88,VALID,0,VALID,96.1074,VALID,0,VALID,22.2914,VALID,80,VALID,0.557031,
2008-05-28, 03:02:05,VALID,1007.89,VALID,0,VALID,96.1074,VALID,0,VALID,22.293,VALID,63,VALID,0.482422,
2008-05-28, 03:03:05,VALID,1007.91,VALID,0,VALID,96.1074,VALID,0,VALID,22.2736,VALID,67,VALID,1.03242,
2008-05-28, 03:04:05,VALID,1007.93,VALID,0,VALID,96.115,VALID,0,VALID,22.2541,VALID,71,VALID,0.833203,
2008-05-28, 03:05:05,VALID,1007.93,VALID,0,VALID,96.1302,VALID,0,VALID,22.2329,VALID,60,VALID,0.485547,
2008-05-28, 03:06:05,VALID,1007.94,VALID,0,VALID,96.1302,VALID,0,VALID,22.2541,VALID,58,VALID,0.492188,
2008-05-28, 03:07:05,VALID,1007.93,VALID,0,VALID,96.1302,VALID,0,VALID,22.2134,VALID,58,VALID,0.787109,
2008-05-28, 03:08:05,VALID,1007.92,VALID,0,VALID,96.1379,VALID,0,VALID,22.194,VALID,70,VALID,0.616406,
2008-05-28, 03:09:05,VALID,1007.96,VALID,0,VALID,96.1302,VALID,0,VALID,22.1745,VALID,73,VALID,0.613281,
2008-05-28, 03:10:05,VALID,1007.97,VALID,0,VALID,96.1379,VALID,0,VALID,22.1957,VALID,73,VALID,0.270312,
2008-05-28, 03:11:05,VALID,1007.96,VALID,0,VALID,96.1608,VALID,0,VALID,22.1957,VALID,73,VALID,0.294141,
2008-05-28, 03:12:05,VALID,1007.97,VALID,0,VALID,96.1379,VALID,0,VALID,22.155,VALID,73,VALID,0.469531,
2008-05-28, 03:13:05,VALID,1007.95,VALID,0,VALID,96.1608,VALID,0,VALID,22.1567,VALID,73,VALID,0.347656,
2008-05-28, 03:14:05,VALID,1007.96,VALID,0,VALID,96.1608,VALID,0,VALID,22.1355,VALID,67,VALID,0.476563,
2008-05-28, 03:15:05,VALID,1007.93,VALID,0,VALID,96.1684,VALID,0,VALID,22.1372,VALID,67,VALID,0.0324219,
2008-05-28, 03:16:05,VALID,1007.93,VALID,0,VALID,96.1836,VALID,0,VALID,22.1355,VALID,67,VALID,0.0046875,
2008-05-28, 03:17:05,VALID,1007.95,VALID,0,VALID,96.1913,VALID,0,VALID,22.1161,VALID,62,VALID,0.401953,
2008-05-28, 03:18:05,VALID,1007.95,VALID,0,VALID,96.2141,VALID,0,VALID,22.1161,VALID,51,VALID,0.504687,
2008-05-28, 03:19:05,VALID,1007.96,VALID,0,VALID,96.1836,VALID,0,VALID,22.0966,VALID,52,VALID,0.309766,
2008-05-28, 03:20:05,VALID,1007.96,VALID,0,VALID,96.2218,VALID,0,VALID,22.1161,VALID,63,VALID,0.489062,
2008-05-28, 03:21:05,VALID,1008.02,VALID,0,VALID,96.2141,VALID,0,VALID,22.1161,VALID,60,VALID,0.489453,
2008-05-28, 03:22:05,VALID,1008.01,VALID,0,VALID,96.237,VALID,0,VALID,22.1177,VALID,65,VALID,0.460156,
2008-05-28, 03:23:05,VALID,1008.04,VALID,0,VALID,96.2446,VALID,0,VALID,22.155,VALID,68,VALID,0.496484,
2008-05-28, 03:24:05,VALID,1008.02,VALID,0,VALID,96.2599,VALID,0,VALID,22.1355,VALID,69,VALID,0.590234,
2008-05-28, 03:25:05,VALID,1008.05,VALID,0,VALID,96.2446,VALID,0,VALID,22.1762,VALID,88,VALID,0.723828,
2008-05-28, 03:26:05,VALID,1008.05,VALID,0,VALID,96.2599,VALID,0,VALID,22.155,VALID,88,VALID,0.833594,
2008-05-28, 03:27:05,VALID,1008.03,VALID,0,VALID,96.2599,VALID,0,VALID,22.155,VALID,84,VALID,0.712891,
2008-05-28, 03:28:05,VALID,1008.05,VALID,0,VALID,96.2828,VALID,0,VALID,22.155,VALID,87,VALID,0.747266,
2008-05-28, 03:29:05,VALID,1008.03,VALID,0,VALID,96.2751,VALID,0,VALID,22.1762,VALID,81,VALID,0.233984,
2008-05-28, 03:30:05,VALID,1008.05,VALID,0,VALID,96.2904,VALID,0,VALID,22.155,VALID,72,VALID,0.449609,
2008-05-28, 03:31:05,VALID,1008.06,VALID,0,VALID,96.2751,VALID,0,VALID,22.155,VALID,102,VALID,0.779297,
2008-05-28, 03:32:05,VALID,1008.05,VALID,0,VALID,96.2828,VALID,0,VALID,22.2151,VALID,93,VALID,0.737891,
2008-05-28, 03:33:05,VALID,1008.07,VALID,0,VALID,96.2904,VALID,0,VALID,22.2134,VALID,124,VALID,0.675391,
2008-05-28, 03:34:05,VALID,1008.06,VALID,0,VALID,96.3056,VALID,0,VALID,22.2524,VALID,140,VALID,0.921094,
2008-05-28, 03:35:05,VALID,1008.07,VALID,0,VALID,96.3133,VALID,0,VALID,22.2524,VALID,144,VALID,0.975781,
2008-05-28, 03:36:05,VALID,1008.07,VALID,0,VALID,96.3133,VALID,0,VALID,22.2914,VALID,139,VALID,0.61875,
2008-05-28, 03:37:05,VALID,1008.09,VALID,0,VALID,96.298,VALID,0,VALID,22.2541,VALID,147,VALID,0.986328,
2008-05-28, 03:38:05,VALID,1008.05,VALID,0,VALID,96.3056,VALID,0,VALID,22.2329,VALID,132,VALID,0.667969,
2008-05-28, 03:39:05,VALID,1008.06,VALID,0,VALID,96.298,VALID,0,VALID,22.2524,VALID,127,VALID,0.550781,
2008-05-28, 03:40:05,VALID,1008.07,VALID,0,VALID,96.3133,VALID,0,VALID,22.2524,VALID,106,VALID,0.407422,
2008-05-28, 03:41:05,VALID,1008.07,VALID,0,VALID,96.3133,VALID,0,VALID,22.2524,VALID,104,VALID,0.649609,
2008-05-28, 03:42:05,VALID,1008.07,VALID,0,VALID,96.3133,VALID,0,VALID,22.2541,VALID,85,VALID,0.759375,
2008-05-28, 03:43:05,VALID,1008.11,VALID,0,VALID,96.3133,VALID,0,VALID,22.2329,VALID,93,VALID,0.687891,
2008-05-28, 03:44:05,VALID,1008.11,VALID,0,VALID,96.3285,VALID,0,VALID,22.2134,VALID,102,VALID,0.707422,
2008-05-28, 03:45:05,VALID,1008.09,VALID,0,VALID,96.3209,VALID,0,VALID,22.2346,VALID,107,VALID,0.767578,
2008-05-28, 03:46:05,VALID,1008.12,VALID,0,VALID,96.3285,VALID,0,VALID,22.2541,VALID,102,VALID,0.393359,
2008-05-28, 03:47:05,VALID,1008.14,VALID,0,VALID,96.3209,VALID,0,VALID,22.293,VALID,115,VALID,0.401953,